Wind_Speed
13 11 12 11 10 9 9 10 11 11 10 10 13 13 11 9 8 7 7 6 5 5 6 6 7 8 8 9 9 9 10 10 10 10 11 11 10 10 10 10 9 10
13 12 13 13 10 9 10 10 11 12 11 10 12 13 12 9 8 8 7 6 5 5 6 6 7 7 8 8 8 8 9 9 9 10 10 10 10 10 9 10 10 10
12 13 15 15 11 9 10 11 13 13 11 10 12 13 12 10 8 8 8 6 5 5 6 6 6 7 7 8 8 8 8 8 8 9 9 9 9 9 9 10 10 10
11 14 16 15 12 10 10 12 13 12 11 10 12 14 12 10 9 8 8 7 6 5 6 7 6 6 7 7 7 7 7 8 8 8 9 9 9 9 9 9 9 10
13 16 17 15 13 11 11 12 12 12 11 10 13 14 12 10 9 9 9 8 6 6 7 7 6 6 7 7 7 7 7 7 8 8 9 9 9 9 9 9 9 9
15 17 16 13 12 11 11 11 11 11 10 10 13 14 12 10 9 9 9 9 7 7 8 7 6 6 6 6 7 6 7 7 7 8 9 9 9 9 9 9 9 9
16 15 13 12 11 10 10 10 11 11 10 11 13 13 12 10 10 10 10 9 8 9 8 7 6 6 6 6 7 7 7 7 7 8 9 8 8 8 9 9 10 9
17 13 11 12 10 9 8 8 10 10 11 12 13 13 12 10 10 10 10 9 9 9 9 7 7 7 7 7 7 7 7 8 8 8 9 8 8 8 8 9 10 10
15 10 10 10 9 8 9 8 10 10 11 12 14 13 11 10 10 9 10 9 8 9 8 7 7 6 6 6 6 6 8 8 7 6 7 8 7 7 7 9 10 11
11 9 10 9 8 9 9 9 9 10 11 13 14 13 10 9 10 10 10 10 9 9 8 6 6 6 6 6 6 6 7 7 6 6 7 7 7 6 6 8 9 10
10 10 10 8 8 9 9 9 9 10 12 14 13 11 9 9 10 10 10 10 10 9 6 5 5 5 6 6 7 7 7 7 7 7 6 6 7 6 6 7 9 9
9 9 8 8 9 9 9 10 11 12 13 13 11 10 9 9 10 10 9 9 10 8 5 3 3 3 4 6 7 8 9 8 7 7 6 6 7 8 7 8 9 9
9 8 8 8 8 7 8 10 12 13 13 11 9 9 10 9 9 10 10 8 7 4 4 4 4 4 4 5 8 9 10 10 8 6 6 7 8 9 8 7 8 8
7 7 8 8 6 5 9 12 13 12 11 9 7 8 10 10 8 9 9 7 4 1 2 4 4 4 5 7 9 10 10 11 9 7 6 7 8 9 7 6 7 8
5 6 6 5 5 7 11 13 12 11 10 7 6 8 9 9 8 7 6 5 2 1 3 4 2 4 6 9 10 10 10 10 10 8 7 8 9 9 8 9 9 9
3 3 3 5 7 9 12 12 11 10 9 6 6 8 8 7 8 7 5 4 3 0 3 4 3 5 8 9 9 10 10 10 9 7 7 8 9 9 10 11 11 10
2 1 3 6 9 10 11 11 9 9 9 7 6 7 7 6 7 7 5 4 3 1 2 3 4 6 7 8 9 10 10 9 8 6 7 9 9 10 10 10 11 10
2 3 4 7 9 10 9 9 8 8 8 7 6 7 7 7 7 6 5 3 1 2 2 1 2 4 6 7 9 10 9 9 8 5 6 8 8 9 10 10 10 11
4 4 5 9 10 10 8 8 7 7 7 7 6 6 7 7 6 5 4 2 2 2 2 1 0 2 5 7 9 9 9 9 7 5 6 8 8 8 10 10 9 10
5 5 6 9 12 10 8 7 7 6 7 6 6 6 7 7 6 4 4 3 4 4 3 1 0 2 5 7 8 8 8 7 6 5 6 7 9 9 10 10 9 8
5 6 7 10 13 11 8 6 6 6 6 6 5 6 7 6 5 4 4 4 4 4 4 3 1 2 4 6 7 7 6 6 6 6 6 7 9 10 10 10 9 8
6 7 9 12 14 12 8 6 6 6 6 5 5 6 7 7 6 5 5 5 4 4 5 4 2 3 4 5 6 6 6 6 6 6 7 7 8 10 10 10 9 8
7 7 10 13 15 13 8 6 6 6 7 6 6 7 7 7 7 6 5 5 5 5 5 4 3 4 5 5 6 6 5 6 6 6 7 8 9 10 10 10 10 9
6 8 11 14 15 12 8 6 6 6 7 7 6 7 7 7 7 5 5 5 5 5 5 4 4 4 5 5 6 6 6 6 7 7 8 8 9 10 10 10 11 11
6 8 10 13 13 11 8 7 6 7 8 7 7 7 7 7 6 5 5 6 6 6 5 4 4 4 4 5 6 6 7 7 8 9 9 9 10 11 12 12 12 11
6 8 11 14 13 10 8 7 7 7 8 8 7 7 7 7 6 5 5 6 6 5 5 4 4 4 4 5 6 7 7 8 9 9 10 10 11 11 11 13 14 12
Wind_Direction
264 267 272 277 281 284 287 289 290 292 300 323 335 332 322 311 304 298 293 297 304 312 320 327 332 331 331 336 338 336 332 330 331 333 334 334 336 338 337 337 337 335
265 267 270 275 277 280 285 287 290 292 297 318 333 331 322 313 304 295 290 293 302 312 319 322 324 324 329 334 332 329 325 324 325 325 326 326 327 328 329 329 330 330
270 268 269 274 275 279 287 290 289 288 292 311 328 330 322 314 304 292 287 292 302 312 315 313 315 322 327 327 326 325 319 317 320 319 318 318 319 321 322 323 323 325
270 268 268 272 280 288 288 287 286 283 288 309 324 327 322 313 303 291 284 285 295 305 303 301 310 321 323 323 322 321 315 314 315 314 312 312 316 318 318 319 320 321
261 264 269 275 283 287 282 282 284 280 287 310 323 325 320 312 302 291 283 281 288 294 292 296 311 320 320 321 322 321 317 313 310 308 307 308 312 316 317 319 319 319
262 265 270 274 276 273 273 279 281 279 289 311 321 321 317 310 302 293 286 284 288 290 289 297 313 319 321 323 324 325 320 312 308 305 304 307 313 319 321 322 321 321
265 267 266 269 271 272 275 279 277 279 294 311 317 318 314 305 300 296 291 290 295 295 296 305 316 319 323 327 329 331 324 314 310 305 303 306 313 320 325 325 324 325
265 261 262 267 273 280 283 278 274 281 297 310 314 313 306 302 302 300 294 291 293 294 299 309 318 322 327 332 338 338 329 322 319 312 305 306 311 315 323 329 329 330
268 260 265 272 276 279 279 273 273 284 300 309 309 306 304 306 306 298 290 286 287 295 303 311 317 325 330 336 346 344 333 329 326 313 301 299 302 305 322 337 334 332
262 256 260 264 266 270 273 271 272 287 302 305 303 303 307 308 301 293 287 285 288 292 296 304 315 324 329 337 352 354 341 334 324 307 292 290 296 309 335 342 334 333
250 249 251 251 256 266 270 270 278 295 301 300 302 304 305 302 296 289 284 285 288 287 286 297 314 323 332 343 354 355 346 337 326 316 305 302 316 340 350 339 334 338
249 246 248 248 251 260 267 274 290 302 300 300 303 300 297 295 289 284 281 280 283 289 299 306 312 331 346 355 358 359 356 347 337 333 332 336 345 352 347 336 337 341
251 241 239 242 247 259 272 284 299 303 299 300 299 292 292 289 277 273 276 277 276 289 325 328 339 356 4 12 12 11 8 360 356 357 355 0 359 351 344 342 342 344
249 227 223 236 256 280 287 296 304 300 295 298 293 286 288 288 278 268 272 280 278 288 329 331 360 13 15 23 19 14 11 4 4 4 356 3 0 345 342 353 354 356
230 207 214 250 291 300 296 300 301 294 294 297 288 281 281 285 290 282 273 276 274 354 352 341 9 28 25 25 17 9 7 2 1 358 348 352 353 345 351 1 4 6
211 196 237 289 305 301 297 297 294 289 292 293 283 280 277 275 281 283 274 259 244 29 3 342 1 25 24 20 11 5 2 358 358 357 348 347 349 353 359 359 358 2
227 234 287 308 311 303 295 291 288 286 288 287 279 280 280 269 266 271 272 264 253 232 256 302 351 14 15 9 3 1 356 354 357 351 342 345 349 353 356 353 352 357
254 265 299 320 320 309 296 289 286 284 282 281 278 276 276 270 263 262 262 260 259 233 224 245 347 353 355 354 355 356 352 353 356 344 332 338 343 347 350 351 354 354
257 269 307 328 328 320 304 289 285 281 276 276 275 270 267 261 256 255 250 227 200 228 244 150 152 316 338 348 350 349 348 351 353 338 323 327 334 344 348 348 352 355
258 274 311 330 333 329 314 294 285 277 269 270 271 266 261 256 252 251 245 219 191 213 255 284 286 314 335 345 344 341 342 348 347 327 314 321 330 339 345 344 346 354
260 285 312 327 333 331 320 301 290 274 263 262 262 260 258 253 248 240 232 223 201 206 242 267 286 312 327 336 335 333 338 342 336 317 308 315 324 331 339 342 341 343
273 295 313 324 330 331 323 307 292 273 262 259 253 251 249 242 239 232 220 216 207 211 235 252 268 297 314 324 327 329 330 331 328 315 305 307 317 325 335 341 342 337
289 308 320 326 330 329 320 303 289 271 263 260 251 249 249 245 241 235 220 210 204 214 234 245 256 280 301 317 325 323 317 319 323 314 304 306 314 323 332 337 337 335
301 315 326 328 328 325 314 299 286 268 259 257 252 251 254 252 247 237 220 207 203 215 234 246 253 266 289 311 319 315 307 310 315 311 307 309 311 317 325 329 329 329
299 312 326 330 328 324 312 297 280 262 252 250 250 250 252 253 247 235 216 205 204 211 224 243 256 265 283 303 309 306 303 305 308 310 311 312 312 313 319 324 323 322
291 311 330 336 335 327 311 295 279 262 251 247 247 248 249 251 244 233 216 205 204 209 218 239 260 273 287 301 305 302 300 301 305 308 311 312 312 312 314 317 317 317
Height
3182 3183 3182 3182 3182 3182 3182 3182 3182 3181 3181 3180 3179 3178 3177 3177 3176 3176 3176 3176 3175 3175 3175 3175 3174 3174 3174 3173 3173 3173 3173 3172 3172 3171 3171 3170 3170 3170 3169 3169 3168 3168
3181 3182 3181 3181 3182 3181 3181 3181 3181 3180 3180 3179 3178 3178 3177 3176 3176 3176 3176 3175 3175 3174 3174 3174 3174 3173 3173 3173 3173 3173 3173 3172 3172 3171 3171 3170 3170 3170 3169 3169 3168 3167
3180 3181 3180 3180 3181 3181 3180 3180 3180 3179 3179 3178 3178 3177 3176 3175 3175 3175 3175 3175 3174 3174 3173 3173 3173 3173 3172 3172 3173 3173 3172 3172 3172 3171 3171 3170 3170 3169 3169 3168 3167 3167
3179 3179 3179 3179 3179 3180 3179 3179 3178 3178 3178 3177 3176 3176 3175 3174 3174 3174 3174 3174 3173 3173 3173 3172 3172 3172 3172 3172 3172 3172 3172 3172 3171 3171 3171 3170 3170 3169 3168 3168 3167 3166
3178 3178 3177 3177 3178 3178 3178 3177 3177 3177 3177 3176 3175 3174 3174 3173 3173 3173 3173 3173 3172 3172 3172 3171 3171 3171 3171 3171 3171 3171 3171 3171 3171 3171 3170 3170 3169 3169 3168 3167 3167 3166
3177 3177 3177 3177 3177 3177 3177 3176 3176 3176 3176 3175 3174 3173 3173 3172 3172 3172 3172 3172 3172 3171 3171 3170 3170 3170 3170 3170 3170 3170 3170 3170 3170 3170 3170 3169 3169 3168 3168 3167 3166 3165
3176 3176 3176 3176 3176 3175 3175 3175 3175 3175 3175 3174 3174 3173 3172 3171 3171 3171 3171 3171 3171 3170 3170 3169 3169 3169 3169 3170 3169 3169 3169 3169 3169 3169 3169 3169 3168 3167 3167 3166 3166 3165
3175 3176 3176 3176 3175 3174 3174 3174 3174 3174 3174 3173 3172 3172 3171 3170 3170 3171 3170 3170 3170 3170 3169 3169 3169 3169 3169 3169 3169 3168 3168 3168 3168 3169 3168 3168 3167 3166 3166 3166 3165 3164
3174 3175 3176 3175 3174 3173 3173 3173 3173 3172 3172 3172 3171 3170 3170 3170 3170 3170 3170 3169 3169 3169 3168 3168 3168 3168 3168 3168 3168 3168 3168 3168 3168 3168 3168 3167 3166 3165 3165 3165 3164 3163
3174 3175 3175 3174 3173 3173 3172 3172 3171 3171 3171 3170 3170 3169 3169 3169 3168 3169 3169 3168 3168 3168 3167 3167 3167 3167 3167 3167 3167 3167 3167 3167 3167 3167 3167 3166 3165 3165 3165 3164 3163 3162
3172 3173 3173 3173 3172 3172 3171 3171 3170 3170 3169 3168 3168 3168 3168 3168 3168 3168 3168 3167 3167 3167 3167 3167 3167 3167 3167 3166 3167 3167 3167 3166 3166 3166 3166 3165 3164 3164 3164 3163 3162 3161
3170 3171 3171 3171 3170 3170 3170 3169 3168 3168 3167 3167 3167 3167 3167 3167 3167 3167 3167 3167 3166 3166 3166 3166 3166 3167 3166 3166 3166 3166 3166 3166 3166 3166 3165 3165 3164 3164 3163 3162 3161 3160
3168 3169 3169 3169 3169 3169 3169 3168 3167 3166 3165 3166 3166 3166 3166 3167 3167 3167 3166 3166 3166 3165 3165 3165 3166 3166 3166 3166 3166 3165 3165 3165 3165 3165 3165 3165 3164 3164 3163 3161 3160 3160
3167 3167 3167 3168 3168 3168 3167 3166 3166 3165 3164 3165 3166 3166 3165 3166 3166 3166 3165 3165 3165 3165 3165 3165 3166 3166 3166 3165 3165 3165 3165 3165 3165 3165 3165 3164 3164 3163 3162 3161 3160 3159
3166 3166 3167 3167 3167 3167 3166 3165 3164 3163 3163 3164 3165 3165 3165 3165 3165 3165 3164 3164 3164 3165 3165 3165 3166 3166 3165 3165 3165 3165 3165 3165 3165 3165 3164 3164 3163 3162 3161 3160 3159 3159
3165 3165 3166 3166 3166 3166 3164 3164 3163 3162 3162 3163 3164 3164 3164 3164 3164 3164 3164 3164 3164 3165 3165 3164 3165 3165 3165 3165 3165 3165 3165 3165 3165 3164 3164 3163 3163 3162 3160 3159 3159 3158
3164 3165 3165 3166 3165 3165 3164 3163 3162 3162 3161 3162 3163 3163 3163 3163 3163 3163 3163 3163 3163 3164 3164 3164 3164 3164 3165 3165 3165 3165 3164 3164 3164 3164 3163 3163 3162 3161 3160 3159 3159 3158
3164 3164 3165 3165 3164 3164 3163 3162 3161 3161 3161 3161 3162 3162 3162 3162 3162 3163 3163 3163 3163 3163 3163 3164 3164 3164 3165 3165 3164 3164 3164 3164 3163 3163 3163 3162 3161 3161 3160 3159 3158 3157
3163 3164 3164 3164 3163 3162 3162 3160 3160 3160 3160 3160 3161 3161 3161 3161 3162 3162 3162 3163 3163 3163 3163 3163 3164 3164 3164 3164 3164 3164 3163 3163 3163 3163 3162 3162 3161 3160 3159 3158 3158 3157
3163 3163 3163 3163 3162 3161 3160 3159 3159 3159 3159 3159 3160 3160 3160 3161 3161 3162 3162 3162 3162 3163 3162 3163 3163 3164 3164 3163 3163 3163 3163 3163 3162 3162 3162 3161 3160 3159 3159 3158 3157 3157
3162 3162 3162 3162 3161 3160 3159 3158 3158 3158 3159 3159 3159 3160 3160 3160 3161 3161 3162 3162 3162 3162 3162 3162 3163 3163 3163 3163 3163 3163 3162 3162 3162 3161 3161 3161 3159 3159 3158 3158 3157 3156
3162 3162 3161 3161 3160 3158 3157 3157 3157 3157 3158 3158 3158 3159 3159 3160 3160 3160 3161 3161 3161 3161 3162 3162 3162 3163 3163 3163 3162 3162 3162 3162 3161 3161 3161 3160 3159 3158 3158 3157 3156 3156
3161 3161 3160 3159 3158 3157 3156 3156 3156 3157 3157 3157 3158 3158 3158 3159 3159 3160 3160 3160 3160 3160 3161 3161 3162 3162 3162 3162 3162 3161 3161 3161 3161 3161 3160 3159 3159 3158 3157 3156 3156 3155
3160 3160 3159 3158 3157 3156 3155 3155 3156 3156 3156 3157 3157 3157 3158 3158 3159 3159 3159 3159 3159 3160 3160 3161 3161 3161 3161 3161 3161 3161 3161 3161 3161 3160 3159 3159 3158 3157 3156 3156 3155 3154
3159 3159 3159 3158 3156 3155 3155 3155 3155 3155 3156 3156 3156 3157 3157 3158 3158 3158 3158 3158 3159 3159 3159 3160 3160 3161 3161 3160 3160 3160 3161 3160 3160 3159 3159 3158 3157 3156 3155 3155 3154 3153
3159 3158 3158 3157 3156 3155 3154 3154 3155 3155 3155 3155 3156 3156 3156 3157 3157 3157 3157 3157 3158 3158 3159 3159 3159 3160 3160 3160 3160 3160 3160 3160 3159 3158 3158 3157 3156 3156 3155 3154 3153 3152